Weather in Bel-Ombre

Mauritius     20°30′12″S   57°24′03″E
temp.,
°C
wind,
m/s
gust,
m/s
humid.,
%
clouds,
%
prec.,
mm/h
press.,
hPa
HPBL,
m
13 april, tue
tue1301:00+24e4687100 2.8 1017406
04:00+24e4685100 6.3 1015501
07:00+25e4579100 0.1 1017568
10:00+26e5570100 0.1 10181011
13:00+27ese5563100 0.0 10161084
16:00+26e4471100 0.1 1015847
19:00+25e4677100 0.1 1016643
22:00+25e5782100 0.3 1018658
14 april, wed
wed1401:00+24e578582 0.2 1017582
04:00+24e588674 0.7 1015616
07:00+24e578560 0.8 1016637
10:00+26e677343 1.3 10171050
13:00+27ene5669100 0.2 10151125
16:00+26e5672100 0.4 10141004
19:00+25e5783100 0.2 1016637
22:00+25ene5879100 0.6 1016710
15 april, thu
thu1501:00+24ene468198 0.0 1015589
04:00+24ene4584100 0.2 1014480
07:00+24ene358798 0.3 1015435
10:00+25ene3579100 1.1 1015579
13:00+28ene3463100 0.5 10131057
16:00+27ene236884 1.1 1012772
19:00+25ne028261 1.8 1014268
22:00
16 april, fri
fri1601:00+24nne338991 0.4 1013231
04:00+23nne229010 0.8 1012116
07:00+24nne23885 0.4 1013142
10:00+27sw027074 0.4 1013708
13:00+26ssw327781 0.8 1011549
16:00+25s118197 1.9 1011434
19:00+25ssw018498 0.4 1012186
22:00+25nw128425 0.4 1013203
17 april, sat
sat1701:00+24nnw11875 0.0 1013121
04:00+24n22872 0.0 101295
07:00+24n22875 0.0 1013108
10:00+28n23619 0.0 1014812
13:00+29wsw2360100 0.0 10121008
16:00+28sw2268100 0.1 1013795
19:00+26wsw1281100 0.0 1014162
22:00+25nne12835 0.1 1016153